Clinton, IA

2:39 PM CDT on July 26, 2017 (GMT -0500)
Clinton Municipal

Weather History for KCWI - February, 2012

Change the Weather History Date:

Tuesday, February 14, 2012

  Actual Average Record
Temperature  
Mean Temperature 32 °F -  
Max Temperature 35 °F 34 °F 62 °F (1954)
Min Temperature 30 °F 17 °F -4 °F (2015)
Degree Days  
Heating Degree Days 32    
Moisture  
Dew Point 28 °F    
Average Humidity 83    
Maximum Humidity 93    
Minimum Humidity 70    
Precipitation  
Precipitation 0.05 in - - ()
Sea Level Pressure  
Sea Level Pressure 29.87 in    
Wind  
Wind Speed 7 mph (SW)    
Max Wind Speed 15 mph    
Max Gust Speed -    
Visibility 6 miles    
Events      
Averages and records for this station are not official NWS values.
T = Trace of Precipitation, MM = Missing Value Source: NWS Daily Summary

Daily Weather History Graph

Daily Weather History Graph

Search for Another Location

Airport or City:

Trip Planner

Search our weather history database for the weather conditions in past years. The results will help you decide how hot, cold, wet, or windy it might be!

Date:

Astronomy

Feb. 14, 2012 Rise Set
Actual Time 6:58 AM CST 5:32 PM CST
Civil Twilight 6:30 AM CST 6:01 PM CST
Nautical Twilight 5:57 AM CST 6:34 PM CST
Astronomical Twilight 5:25 AM CST 7:06 PM CST
Moon 12:46 AM CST (2/14) 10:35 AM CST (2/14)
Length of Visible Light 11h 31m
Length of Day
10h 33m
Waning Gibbous, 50% of the Moon is Illuminated
Feb 14
Waning Gibbous
Feb 21
New
Feb 29
First Quarter
Mar 8
Full
Mar 14
Last Quarter

Hourly Weather History & Observations

Time (CST) Temp. Windchill Dew Point Humidity Pressure Visibility Wind Dir Wind Speed Gust Speed Precip Events Conditions
12:15 AM 30.2 °F 21.9 °F 26.6 °F 86% 29.82 in 5.0 mi SSW 9.2 mph - N/A   Overcast
12:35 AM 30.2 °F 22.6 °F 26.6 °F 86% 29.82 in 4.0 mi SSW 8.1 mph - N/A   Overcast
1:15 AM 30.2 °F 23.4 °F 26.6 °F 86% 29.82 in 3.0 mi SSW 6.9 mph - N/A   Overcast
1:35 AM 30.2 °F 24.3 °F 26.6 °F 86% 29.82 in 3.0 mi SSW 5.8 mph - N/A   Overcast
1:55 AM 30.2 °F 25.4 °F 26.6 °F 86% 29.82 in 3.0 mi SSW 4.6 mph - N/A   Overcast
2:15 AM 30.2 °F 25.4 °F 26.6 °F 86% 29.82 in 3.0 mi SSW 4.6 mph - N/A   Overcast
2:35 AM 30.2 °F 24.3 °F 26.6 °F 86% 29.81 in 3.0 mi SSW 5.8 mph - N/A   Overcast
2:55 AM 30.2 °F 25.4 °F 28.4 °F 93% 29.81 in 3.0 mi South 4.6 mph - N/A   Overcast
3:15 AM 30.2 °F 25.4 °F 26.6 °F 86% 29.81 in 2.5 mi SSW 4.6 mph - N/A   Overcast
3:35 AM 30.2 °F 25.4 °F 26.6 °F 86% 29.81 in 2.0 mi SSW 4.6 mph - N/A   Overcast
3:55 AM 30.2 °F 25.4 °F 28.4 °F 93% 29.81 in 2.0 mi SSW 4.6 mph - N/A   Overcast
4:15 AM 30.2 °F 25.4 °F 26.6 °F 86% 29.81 in 2.5 mi SSW 4.6 mph - N/A   Overcast
4:35 AM 30.2 °F 25.4 °F 26.6 °F 86% 29.82 in 2.5 mi SSW 4.6 mph - N/A   Overcast
4:55 AM 30.2 °F 25.4 °F 26.6 °F 86% 29.82 in 2.5 mi SW 4.6 mph - N/A   Overcast
5:15 AM 30.2 °F 25.4 °F 26.6 °F 86% 29.82 in 2.5 mi SW 4.6 mph - N/A   Overcast
5:35 AM 30.2 °F 25.4 °F 26.6 °F 86% 29.82 in 3.0 mi SW 4.6 mph - N/A   Overcast
5:55 AM 30.2 °F 25.4 °F 26.6 °F 86% 29.82 in 2.5 mi SW 4.6 mph - N/A   Overcast
6:15 AM 30.2 °F 25.4 °F 26.6 °F 86% 29.83 in 2.5 mi SW 4.6 mph - N/A   Overcast
6:35 AM 30.2 °F 24.3 °F 26.6 °F 86% 29.83 in 2.5 mi SW 5.8 mph - N/A   Overcast
6:55 AM 30.2 °F 25.4 °F 26.6 °F 86% 29.84 in 2.5 mi SW 4.6 mph - N/A   Overcast
7:15 AM 30.2 °F 26.7 °F 28.4 °F 93% 29.84 in 2.0 mi SW 3.5 mph - N/A   Overcast
7:55 AM 30.2 °F - 28.4 °F 93% 29.85 in 2.5 mi Calm Calm - N/A   Overcast
8:15 AM 30.2 °F 26.7 °F 28.4 °F 93% 29.86 in 3.0 mi SW 3.5 mph - N/A   Overcast
8:35 AM 30.2 °F 26.7 °F 28.4 °F 93% 29.86 in 3.0 mi SW 3.5 mph - 0.01 in   Overcast
8:55 AM 30.2 °F 24.3 °F 28.4 °F 93% 29.86 in 3.0 mi SW 5.8 mph - 0.01 in   Overcast
9:15 AM 32.0 °F 25.6 °F 28.4 °F 87% 29.86 in 3.0 mi SW 6.9 mph - 0.01 in   Overcast
9:35 AM 32.0 °F 24.8 °F 28.4 °F 87% 29.87 in 4.0 mi WSW 8.1 mph - 0.01 in   Overcast
9:55 AM 32.0 °F 24.8 °F 28.4 °F 87% 29.88 in 5.0 mi West 8.1 mph - 0.02 in   Overcast
10:15 AM 32.0 °F 24.8 °F 28.4 °F 87% 29.88 in 5.0 mi West 8.1 mph - N/A   Overcast
10:35 AM 33.8 °F 26.4 °F 28.4 °F 81% 29.89 in 6.0 mi West 9.2 mph - 0.01 in   Overcast
10:55 AM 33.8 °F 25.8 °F 28.4 °F 81% 29.89 in 7.0 mi West 10.4 mph - 0.01 in   Overcast
11:15 AM 33.8 °F 25.3 °F 28.4 °F 81% 29.90 in 8.0 mi West 11.5 mph - N/A   Overcast
11:55 AM 33.8 °F 27.0 °F 28.4 °F 81% 29.89 in 10.0 mi WSW 8.1 mph - 0.01 in   Overcast
12:15 PM 33.8 °F 27.0 °F 28.4 °F 81% 29.89 in 10.0 mi WSW 8.1 mph - N/A   Overcast
12:35 PM 33.8 °F 25.8 °F 28.4 °F 81% 29.88 in 10.0 mi WSW 10.4 mph - N/A   Overcast
12:55 PM 33.8 °F 27.7 °F 28.4 °F 81% 29.88 in 10.0 mi WSW 6.9 mph - N/A   Overcast
1:15 PM 33.8 °F 27.0 °F 28.4 °F 81% 29.87 in 10.0 mi WSW 8.1 mph - N/A   Overcast
1:35 PM 33.8 °F 27.0 °F 28.4 °F 81% 29.87 in 10.0 mi WSW 8.1 mph - N/A   Overcast
1:55 PM 33.8 °F 25.8 °F 28.4 °F 81% 29.87 in 10.0 mi WSW 10.4 mph - N/A   Overcast
2:15 PM 33.8 °F 23.9 °F 28.4 °F 81% 29.88 in 10.0 mi WSW 15.0 mph - N/A   Overcast
2:35 PM 35.6 °F 27.5 °F 28.4 °F 75% 29.88 in 10.0 mi WSW 11.5 mph - N/A   Overcast
2:55 PM 35.6 °F 27.5 °F 26.6 °F 70% 29.89 in 10.0 mi WSW 11.5 mph - N/A   Overcast
3:15 PM 33.8 °F 25.3 °F 28.4 °F 81% 29.90 in 10.0 mi SW 11.5 mph - N/A   Overcast
3:35 PM 33.8 °F 27.7 °F 28.4 °F 81% 29.90 in 10.0 mi WSW 6.9 mph - N/A   Overcast
3:55 PM 35.6 °F 28.0 °F 28.4 °F 75% 29.89 in 10.0 mi WSW 10.4 mph - N/A   Overcast
4:15 PM 33.8 °F 24.8 °F 26.6 °F 75% 29.89 in 10.0 mi WSW 12.7 mph - N/A   Overcast
4:35 PM 33.8 °F 25.3 °F 28.4 °F 81% 29.90 in 10.0 mi SW 11.5 mph - N/A   Overcast
4:55 PM 33.8 °F 25.3 °F 26.6 °F 75% 29.92 in 10.0 mi SW 11.5 mph - N/A   Overcast
5:15 PM 33.8 °F 25.8 °F 28.4 °F 81% 29.93 in 10.0 mi WSW 10.4 mph - N/A   Overcast
5:35 PM 33.8 °F 26.4 °F 28.4 °F 81% 29.93 in 10.0 mi SW 9.2 mph - N/A   Overcast
5:55 PM 33.8 °F 27.0 °F 28.4 °F 81% 29.93 in 10.0 mi SW 8.1 mph - N/A   Overcast
6:15 PM 33.8 °F 26.4 °F 28.4 °F 81% 29.93 in 10.0 mi SW 9.2 mph - N/A   Overcast
6:35 PM 33.8 °F 26.4 °F 28.4 °F 81% 29.94 in 10.0 mi SSW 9.2 mph - N/A   Overcast
6:55 PM 33.8 °F 26.4 °F 28.4 °F 81% 29.95 in 10.0 mi SW 9.2 mph - N/A   Overcast
7:15 PM 33.8 °F 27.0 °F 28.4 °F 81% 29.95 in 10.0 mi SSW 8.1 mph - N/A   Overcast
7:35 PM 33.8 °F 26.4 °F 26.6 °F 75% 29.95 in 10.0 mi SSW 9.2 mph - N/A   Overcast
7:55 PM 33.8 °F 26.4 °F 26.6 °F 75% 29.95 in 10.0 mi SSW 9.2 mph - N/A   Overcast
8:15 PM 33.8 °F 24.8 °F 26.6 °F 75% 29.96 in 10.0 mi SSW 12.7 mph - N/A   Overcast
8:35 PM 33.8 °F 25.8 °F 28.4 °F 81% 29.95 in 10.0 mi SSW 10.4 mph - N/A   Overcast
8:55 PM 30.2 °F 21.9 °F 26.6 °F 86% 29.96 in 10.0 mi SSW 9.2 mph - N/A   Scattered Clouds
9:15 PM 30.2 °F 22.6 °F 26.6 °F 86% 29.96 in 9.0 mi SSW 8.1 mph - N/A   Clear
9:35 PM 30.2 °F 22.6 °F 26.6 °F 86% 29.97 in 10.0 mi South 8.1 mph - N/A   Clear
9:55 PM 28.4 °F 21.2 °F 24.8 °F 86% 29.97 in 10.0 mi South 6.9 mph - N/A   Clear
10:15 PM 30.2 °F 21.9 °F 26.6 °F 86% 29.97 in 10.0 mi South 9.2 mph - N/A   Clear
10:35 PM 30.2 °F 23.4 °F 26.6 °F 86% 29.98 in 10.0 mi South 6.9 mph - N/A   Clear
10:55 PM 28.4 °F 21.2 °F 26.6 °F 93% 29.98 in 8.0 mi South 6.9 mph - N/A   Clear
11:15 PM 28.4 °F 22.2 °F 24.8 °F 86% 29.99 in 8.0 mi South 5.8 mph - N/A   Clear
11:35 PM 28.4 °F 21.2 °F 24.8 °F 86% 30.00 in 8.0 mi South 6.9 mph - N/A   Clear
11:55 PM 28.4 °F 23.3 °F 24.8 °F 86% 30.00 in 7.0 mi SSE 4.6 mph - N/A   Clear